Location: Mt. Graham
(32.7020°N, 109.8880°W)
Time: 19:10:34
(UTC-07:00)

Tiangong 1 - Visible Passes

Search period start: 23 February 2018 00:00
Search period end: 05 March 2018 00:00
Orbit: 246 x 267 km, 42.8° (Epoch: 23 February)

Date Brightness Start Highest point End Pass type
(mag) Time Alt. Az. Time Alt. Az. Time Alt. Az.
27 Feb 2.7 18:41:19 10° SSE 18:41:58 11° SE 18:42:39 10° ESE visible
28 Feb 4.1 20:05:51 10° W 20:06:00 11° W 20:06:00 11° W visible
01 Mar 3.7 19:58:11 10° WNW 19:58:41 13° WNW 19:58:41 13° WNW visible
02 Mar 3.4 19:50:24 10° NW 19:51:02 12° NNW 19:51:02 12° NNW visible
03 Mar 3.4 19:42:41 10° NNW 19:43:04 10° NNW 19:43:04 10° NNW visible
